Regional Weather Roundup
Issued by NWS Wakefield, VA

Home | Current Version | Previous Version | Text Only | Print | Product List | Glossary On
Versions: 1 2 3 4 5 6 7 8 9 10 11 12 13 14 15 16 17 18 19 20 21 22 23 24 25 26 27 28 29 30 31 32 33 34 35 36 37 38 39 40 41 42 43 44 45 46 47 48 49 50
000
ASUS41 KAKQ 260315
RWRAKQ

REGIONAL WEATHER ROUNDUP
NATIONAL WEATHER SERVICE WAKEFIELD VA
1100 PM EDT SUN SEP 25 2016

Note: "fair" indicates few or no clouds below 12,000 feet with no
significant weather and/or obstructions to visibility. * = Denotes
station may not report precipitation (e.g., rain,snow,etc.),
thunder or fog.

VAZ042-051-052>054-056-260400-
NORTHERN VIRGINIA

CITY           SKY/WX    TMP DP  RH WIND       PRES   REMARKS
WASH NATIONAL  CLOUDY    64  51  62 S7        30.18S
DULLES         CLOUDY    62  54  74 SE3       30.18R
FORT BELVOIR   CLOUDY    58  55  91 CALM      30.18R
QUANTICO         N/A     64  57  78 SE6       30.18S
FREDERICKSBRG* CLOUDY    63  63 100 CALM      30.17S
STAFFORD*      CLOUDY    58  58 100 CALM      30.21S
WARRENTON      CLOUDY    61  54  79 CALM      30.18R
CULPEPER*      CLOUDY    60  58  93 CALM      30.19S
MANASSAS*      CLOUDY    57  55  94 CALM      30.18S
LEESBURG*      CLOUDY    61  57  88 CALM      30.19S
WINCHESTER     CLOUDY    54  52  94 CALM      30.16F
FRONT ROYAL*   FAIR      54  54 100 CALM      30.15F
LURAY*         CLOUDY    63  63 100 CALM      30.16F
$$

VAZ048-049-060>072-079>083-260400-
CENTRAL AND SOUTH CENTRAL VIRGINIA

CITY           SKY/WX    TMP DP  RH WIND       PRES   REMARKS
RICHMOND       MOCLDY    64  56  75 SE5       30.17R
CHESTERFIELD*  CLOUDY    66  52  59 E3        30.18S
PETERSBURG*    CLOUDY    68  63  84 CALM      30.17S
HANOVER        CLOUDY    62  58  86 NE3       30.19R
TAPPAHANNOCK*  CLOUDY    61  61 100 CALM      30.18S
QUINTON*       CLOUDY    65  57  75 CALM      30.16F
CHARLOTTSVILLE CLOUDY    64  58  80 CALM      30.18R
GORDONSVILLE*  CLOUDY    63  61  94 CALM      30.17S
ORANGE*          N/A     63  63 100 CALM      30.19F
LOUISA*        CLOUDY    66  63  88 CALM      30.17R
BUMPASS*       CLOUDY    61  61 100 CALM      30.17S
FARMVILLE*     CLOUDY    67  64  91 CALM      30.16S
CREWE*         CLOUDY    65  65 100 CALM      30.17S
FORT PICKETT*  CLOUDY    66  63  89 S6        30.17S
CHASE CITY*    CLOUDY    67  63  87 CALM      30.16F
CLARKSVILLE*   CLOUDY    68  64  88 CALM      30.16S
SOUTH HILL*    CLOUDY    65  60  84 CALM      30.22S
LAWRENCEVILLE* CLOUDY    65  61  85 CALM      30.16F
EMPORIA*       CLOUDY    64  59  82 E6        30.17F
$$

VAZ088>098-260400-
SOUTHEAST VIRGINIA

CITY           SKY/WX    TMP DP  RH WIND       PRES   REMARKS
NORFOLK        CLEAR     64  57  78 CALM      30.17S
VIRGINIA BEACH PTCLDY    60  55  83 CALM      30.16S
NORFOLK NAVAL  MOCLDY    64  59  83 S3        30.18S
WEST POINT*    CLOUDY    62  56  81 CALM      30.19S
SALUDA*        CLOUDY    61  57  87 CALM      30.16F
NEWPORT NEWS   MOCLDY    61  58  90 CALM      30.17S
LANGLEY AFB    MOCLDY    63  58  86 E5        30.16S
FORT EUSTIS    CLOUDY    65  59  78 SE1       30.14F
WILLIAMSBURG*  PTCLDY    64  61  88 CALM      30.18S
HR EXEC AP*    CLOUDY    63  59  88 CALM      30.19S
FRANKLIN*      CLOUDY    66  60  81 CALM      30.18R
US460-WAKEFLD  CLOUDY    65  61  87 CALM      30.17S
$$

VAZ020-022-025-037-045-260400-
WEST CENTRAL AND SOUTHWEST VIRGINIA

CITY           SKY/WX    TMP DP  RH WIND       PRES   REMARKS
STAUNTON*      CLOUDY    63  59  88 CALM      30.19S
WAYNESBORO*    CLOUDY    63  58  86 S7        30.18S
HOT SPRINGS VA RAIN      52  52 100 S3        30.22F VSB<1/4
LYNCHBURG      CLOUDY    64  63  96 NE3       30.19S
DANVILLE       CLOUDY    69  66  90 CALM      30.16F
SOUTH BOSTON*  CLOUDY    68  65  91 CALM      30.16F
MARTINSVILLE   CLOUDY    66  65  96 CALM      30.19F FOG
ROANOKE        CLOUDY    66  63  90 SE7       30.19F
BLACKSBURG     CLOUDY    65  64  99 E6        30.22F FOG
DUBLIN*        CLOUDY    68  66  95 E3        30.20S
MARION*        CLOUDY    67  65  92 E3        30.22S
HILLSVILLE*    FOG       65  65 100 CALM      30.20F VSB 1
RICHLANDS*     FAIR      70  63  77 SE3       30.18S
WISE*          CLEAR     72  55  56 CALM      30.18F
ABINGDON*      PTCLDY    73  65  77 E5        30.15S
$$

MDZ021>025-VAZ099-100-260400-
SOUTHERN MARYLAND AND THE DELMARVA PENINSULA

CITY           SKY/WX    TMP DP  RH WIND       PRES   REMARKS
PATUXENT RIVER CLEAR     59  52  77 E6        30.17F
BAY BRIDGE APT CLEAR     61  54  77 MISG      30.18S
LEONARDTOWN    CLOUDY    55  52  88 CALM      30.19S
DOVER          CLEAR     56  52  86 S5        30.17S
GEORGETOWN     CLEAR     53  50  89 CALM      30.20R
EASTON         NOT AVBL
CAMBRIDGE      PTCLDY    54  52  94 CALM      30.18S
SALISBURY      CLEAR     55  53  93 CALM      30.18S
OCEAN CITY     CLEAR     55  53  93 CALM      30.19S
WALLOPS ISLAND CLEAR     64  55  72 E6        30.18S
ACCOMACK*      CLEAR     57  54  89 CALM      30.17F
$$

NCZ012>017-030>032-260400-
NORTH CENTRAL AND EASTERN NORTH CAROLINA

CITY           SKY/WX    TMP DP  RH WIND       PRES   REMARKS
ROANOKE RAPIDS CLOUDY    64  61  88 E3        30.17R
RALEIGH        CLOUDY    69  64  84 SE5       30.16S
ELIZABETH CITY PTCLDY    66  58  75 E6        30.17S
AHOSKIE*       CLEAR     62  61  96 CALM      30.18R
EDENTON*       MOCLDY    66  60  81 CALM      30.17S
CURRITUCK*     CLEAR     64  60  88 CALM      30.18S
KILL DEVIL HLS NOT AVBL
MANTEO         CLEAR     67  57  69 E5        30.17S
CAPE HATTERAS  CLEAR     68  57  68 NE6       30.14F
TARBORO*       CLOUDY    68  64  86 CALM      30.17S
GOLDSBORO      MOCLDY    68  66  94 NE6       30.13F
WASHINGTON     NOT AVBL
GREENVILLE     CLEAR     66  63  88 E3        30.17S
NEW BERN       CLOUDY    69  59  70 E6        30.16F
WILMINGTON     PTCLDY    72  65  78 NE6       30.12S
$$

VAZ048-260400-
ELSEWHERE

CITY           SKY/WX    TMP DP  RH WIND       PRES   REMARKS
HARRISBURG PA  CLOUDY    57  50  77 E6        30.17R
BALTIMORE      PTCLDY    56  49  77 CALM      30.18S
ANNAPOLIS      CLEAR     62  58  86 CALM      30.18R
ANDREWS AFB    CLOUDY    60  50  69 CALM      30.17S
PHILADELPHIA   CLEAR     59  49  69 E3        30.18S
HENDERSON NC   MOCLDY    65  62  90 CALM      30.17S
GREENSBORO     CLOUDY    70  68  93 SE8       30.15S
ROCKY MOUNT    MOCLDY    64  64 100 CALM      30.16S
$$

VAZ100-260400-
MARINE

STATION/POSITION TIME  TEMP    WIND        PRES    WAVE   SWELL
                       AIR SEA DIR/SP/G            HT/PER HT/PER
                 (UTC) (F)     (DEG/KT/KT) (MB)    (FT/S) (FT/S)
BRANDYWINE LGT   0200   67     150/  5/  6   N/A
CAPE MAY NJ      0200   60 73  120/  2/  3 1021.6R
LEWES DE         0200   62 73  170/  4/  5 1021.9R
OCEAN-CITY-INLET 0200   66 73  120/  4/  5 1022.5R
WACHAPREAGUE VA  0200   66 76   70/  4/  5 1021.8R
THOMAS POINT MD  0300   67 75  130/ 11/ 11 1023.2S
GOOSES REEF MD   0200   70 75  120/  4/  8 1022.5R   0
COVE POINT MD    0200   68     100/  4/  6 1022.4R
SOLOMONS ISLAND  0200   67 76   10/  2/  3   N/A
BISHOPS HEAD MD  0200   67 73  100/ 10/ 13 1022.0R
PINEY POINT MD   0200           70/  3/  4   N/A
POTOMAC MD       0200   70 76   80/  4/  8 1020.6R   0
CAMBRIDGE MD     0200   61 75  140/  2/  6 1021.3R
LEWISETTA VA     0200   70 75  100/  6/  8 1021.2R
RAPPAHANNOCK LGT 0200           90/  9/ 11 1022.1R
STINGRAY PT      0200   71 76   10/  6/  8 1021.9R   0
YORK RVR RNG VA  0200   70     100/  6/  8 1021.1R
YORKTOWN VA      0200   70 77   50/  6/  7 1021.1R
JAMESTOWN VA     0200   67 78   60/  4/  6   N/A     0
DOMINION TERM VA 0200   70     130/ 10/ 11 1021.4R
KIPTOPEKE VA     0200      77   70/  4/  4   N/A
CHES BAY BRIDGE  0200   70 77   40/  6/  7 1021.4R
CAPE HENRY VA    0200   70      70/  9/ 11   N/A
WILLOUBY STN VA  0200   69     100/  5/  6   N/A
CAPE HENRY BUOY  0212      76                N/A     3/11   2/11
1ST LANDING BUOY 0200   70 76   80/  6/  8 1021.5R   2/ 4
CAPE CHARLES BUO 0226      76                N/A     3/11   2/11
OFFSHORE WE BUOY 0221      75                N/A     3/ 9   2/11
64NM E OF VA BCH 0250   70 75   70/ 12/ 16 1021.1F   4/ 9   3/ 9
DUCK PIER NC     0200   70 77   50/ 11/ 12 1021.0R
44056 DUCK FRF   0211      76                N/A     3/11   2/11
OREGON INLET NC  0200   70 77   40/  5/ 10 1021.2R
HATTERAS NC      0200   71 79   50/  7/ 13 1020.8R
DIAMOND SHLS NC  0250   74 85   40/ 14/ 17 1020.1F   4/ 8   3/ 8
CAPE LOOKOUT NC  0200   74      50/ 15/ 18 1020.4S
$$



USA.gov is the U.S. government's official web portal to all federal, state and local government web resources and services.